User: anonymous   Login
Location: Bergnerzell
(49.1816°N, 10.2565°E)
Time: 21:19:19
(UTC+00:00)
Language:

NPP - Orbit

View from above orbital plane
View from above orbital plane
View from above satellite
View from above satellite

Ground track
Ground track

The orbit data is extracted from the following two-line orbital elements,

1 37849U 11061A   24206.61111260  .00000239  00000-0  13410-3 0  9998
2 37849  98.7222 144.0300 0001674 114.2115 245.9236 14.19534603660186
Epoch (UTC): 24 July 2024 14:40:00
Eccentricity: 0.0001674
inclination: 98.7222°
perigee height: 826 km
apogee height: 828 km
right ascension of ascending node: 144.0300°
argument of perigee: 114.2115°
revolutions per day: 14.19534603
mean anomaly at epoch: 245.9236°
orbit number at epoch: 66018

The dashed part of the orbit path shows where the satellite is in the earth's shadow,  

DLR